| time (UTC) | temp F | wind direction | speed knots | gust knots | rain 1hr in | rain 24hr in | rain mn in | humidity % | barometer mb |
| 20260506084118 | 41 | 249 | 0.9 | 2.6 | 0.00 | 0.00 | 0.00 | 91 | 1015.8 |
| 20260506083615 | 41 | 249 | 0.9 | 2.6 | 0.00 | 0.00 | 0.00 | 91 | 1015.8 |
| 20260506083113 | 41 | 340 | 1.7 | 2.6 | 0.00 | 0.00 | 0.00 | 91 | 1016.0 |
| 20260506082609 | 41 | 11 | 0.9 | 2.6 | 0.00 | 0.00 | 0.00 | 91 | 1016.0 |
| 20260506082105 | 42 | 121 | 0.0 | 1.7 | 0.00 | 0.00 | 0.00 | 91 | 1015.8 |
| 20260506081603 | 41 | 201 | 0.0 | 1.7 | 0.00 | 0.00 | 0.00 | 91 | 1015.9 |
| 20260506081100 | 42 | 144 | 0.0 | 1.7 | 0.00 | 0.00 | 0.00 | 91 | 1015.9 |
| 20260506080558 | 41 | 152 | 1.7 | 1.7 | 0.00 | 0.00 | 0.00 | 90 | 1015.8 |
| 20260506073038 | 40 | 57 | 3.5 | 3.5 | 0.00 | 0.00 | 0.00 | 89 | 1015.8 |
| 20260506072535 | 42 | 230 | 1.7 | 2.6 | 0.00 | 0.00 | 0.00 | 89 | 1015.4 |
| 20260506072033 | 42 | 296 | 0.0 | 1.7 | 0.00 | 0.00 | 0.00 | 89 | 1015.4 |
| 20260506071531 | 42 | 319 | 2.6 | 2.6 | 0.00 | 0.00 | 0.00 | 90 | 1015.6 |
| 20260506071028 | 42 | 218 | 0.0 | 2.6 | 0.00 | 0.00 | 0.00 | 90 | 1015.3 |
| 20260506070525 | 42 | 261 | 1.7 | 2.6 | 0.00 | 0.00 | 0.00 | 90 | 1015.5 |
| 20260506062502 | 43 | 237 | 1.7 | 2.6 | 0.00 | 0.07 | 0.07 | 89 | 1014.7 |
| 20260506061959 | 43 | 269 | 1.7 | 1.7 | 0.00 | 0.07 | 0.07 | 89 | 1014.6 |
| 20260506061455 | 43 | 275 | 0.0 | 1.7 | 0.00 | 0.07 | 0.07 | 89 | 1014.7 |
| 20260506060953 | 43 | 248 | 1.7 | 2.6 | 0.00 | 0.07 | 0.07 | 88 | 1014.8 |
| 20260506060451 | 44 | 227 | 0.0 | 0.9 | 0.00 | 0.07 | 0.07 | 88 | 1014.8 |
| 20260506050920 | 47 | 190 | 2.6 | 3.5 | 0.00 | 0.07 | 0.07 | 86 | 1014.6 |
| 20260506050417 | 47 | 189 | 1.7 | 4.3 | 0.00 | 0.07 | 0.07 | 86 | 1014.5 |
| 20260506044908 | 47 | 182 | 1.7 | 3.5 | 0.00 | 0.07 | 0.07 | 85 | 1014.5 |
| 20260506044406 | 47 | 163 | 1.7 | 2.6 | 0.00 | 0.07 | 0.07 | 85 | 1014.6 |
| 20260506043902 | 48 | 141 | 1.7 | 2.6 | 0.00 | 0.07 | 0.07 | 84 | 1014.5 |
| 20260506043359 | 48 | 139 | 0.9 | 1.7 | 0.00 | 0.07 | 0.07 | 84 | 1014.5 |
| 20260506042858 | 48 | 154 | 0.0 | 2.6 | 0.00 | 0.07 | 0.07 | 83 | 1014.5 |
| 20260506042357 | 48 | 190 | 2.6 | 4.3 | 0.00 | 0.07 | 0.07 | 84 | 1014.4 |
| 20260506041855 | 48 | 196 | 3.5 | 3.5 | 0.00 | 0.07 | 0.07 | 84 | 1014.1 |
| 20260506041354 | 48 | 192 | 1.7 | 3.5 | 0.00 | 0.07 | 0.07 | 84 | 1014.1 |
| 20260506040849 | 49 | 196 | 2.6 | 5.2 | 0.00 | 0.07 | 0.07 | 83 | 1013.9 |
| 20260506040346 | 49 | 190 | 3.5 | 4.3 | 0.00 | 0.07 | 0.07 | 83 | 1013.5 |
| 20260506035842 | 49 | 201 | 2.6 | 4.3 | 0.00 | 0.07 | 0.07 | 83 | 1013.7 |
| 20260506035340 | 49 | 192 | 3.5 | 4.3 | 0.00 | 0.07 | 0.07 | 82 | 1013.3 |
| 20260506034837 | 49 | 211 | 2.6 | 3.5 | 0.00 | 0.07 | 0.07 | 83 | 1013.2 |
| 20260506034334 | 49 | 200 | 1.7 | 3.5 | 0.00 | 0.07 | 0.07 | 82 | 1013.3 |
| 20260506033831 | 49 | 190 | 1.7 | 3.5 | 0.00 | 0.07 | 0.07 | 82 | 1013.2 |
| 20260506033328 | 50 | 192 | 1.7 | 4.3 | 0.00 | 0.07 | 0.07 | 82 | 1013.1 |
| 20260506032825 | 50 | 197 | 2.6 | 3.5 | 0.00 | 0.07 | 0.07 | 81 | 1013.1 |
| 20260506032322 | 51 | 168 | 1.7 | 4.3 | 0.00 | 0.07 | 0.07 | 79 | 1012.7 |
| 20260506031819 | 50 | 205 | 1.7 | 2.6 | 0.00 | 0.07 | 0.07 | 80 | 1012.5 |
| 20260506031316 | 51 | 181 | 2.6 | 2.6 | 0.00 | 0.07 | 0.07 | 78 | 1012.5 |
| 20260506030813 | 51 | 233 | 4.3 | 5.2 | 0.00 | 0.07 | 0.07 | 77 | 1012.5 |
| 20260506030311 | 52 | 231 | 4.3 | 4.3 | 0.00 | 0.07 | 0.07 | 77 | 1012.5 |
| 20260506025808 | 52 | 232 | 3.5 | 4.3 | 0.00 | 0.07 | 0.07 | 76 | 1012.3 |
| 20260506025305 | 52 | 234 | 3.5 | 5.2 | 0.00 | 0.07 | 0.07 | 76 | 1012.4 |
| 20260506024802 | 52 | 221 | 3.5 | 7.8 | 0.00 | 0.07 | 0.07 | 77 | 1012.1 |
| 20260506024258 | 52 | 247 | 4.3 | 6.1 | 0.00 | 0.07 | 0.07 | 78 | 1012.4 |
| 20260506023754 | 53 | 237 | 4.3 | 7.8 | 0.00 | 0.07 | 0.07 | 77 | 1012.1 |
| 20260506023251 | 53 | 224 | 4.3 | 5.2 | 0.00 | 0.07 | 0.07 | 77 | 1012.1 |
| 20260506022748 | 53 | 225 | 4.3 | 6.1 | 0.00 | 0.07 | 0.07 | 76 | 1012.0 |
| 20260506022246 | 54 | 236 | 4.3 | 7.0 | 0.00 | 0.07 | 0.07 | 75 | 1011.8 |
| 20260506021744 | 55 | 216 | 5.2 | 7.0 | 0.00 | 0.07 | 0.07 | 73 | 1012.0 |
| 20260506021240 | 55 | 233 | 7.0 | 9.6 | 0.00 | 0.07 | 0.07 | 72 | 1012.0 |
| 20260506020737 | 55 | 202 | 4.3 | 8.7 | 0.00 | 0.07 | 0.07 | 71 | 1011.9 |
| 20260506020235 | 55 | 231 | 5.2 | 7.8 | 0.00 | 0.07 | 0.07 | 69 | 1011.9 |
| 20260506015732 | 55 | 228 | 6.1 | 7.0 | 0.00 | 0.07 | 0.07 | 69 | 1011.6 |
| 20260506015230 | 56 | 231 | 5.2 | 8.7 | 0.00 | 0.07 | 0.07 | 68 | 1011.8 |
| 20260506014726 | 56 | 221 | 6.1 | 11.3 | 0.00 | 0.07 | 0.07 | 67 | 1011.7 |
| 20260506014222 | 56 | 235 | 4.3 | 9.6 | 0.00 | 0.07 | 0.07 | 66 | 1011.6 |
| 20260506013720 | 57 | 228 | 7.0 | 8.7 | 0.00 | 0.07 | 0.07 | 66 | 1011.7 |
| 20260506013217 | 57 | 228 | 7.8 | 9.6 | 0.00 | 0.07 | 0.07 | 66 | 1011.6 |
| 20260506012713 | 57 | 228 | 11.3 | 13.0 | 0.00 | 0.07 | 0.07 | 65 | 1011.7 |
| 20260506012211 | 57 | 226 | 7.8 | 13.0 | 0.00 | 0.07 | 0.07 | 67 | 1011.6 |
| 20260506011708 | 57 | 237 | 6.1 | 13.0 | 0.00 | 0.07 | 0.07 | 66 | 1011.2 |
| 20260506011204 | 57 | 230 | 9.6 | 13.9 | 0.00 | 0.07 | 0.07 | 65 | 1011.3 |
| 20260506010702 | 58 | 252 | 7.8 | 12.2 | 0.00 | 0.07 | 0.07 | 64 | 1011.4 |
| 20260506010159 | 59 | 223 | 7.8 | 8.7 | 0.00 | 0.07 | 0.07 | 64 | 1011.2 |
| 20260506005656 | 58 | 227 | 7.8 | 10.4 | 0.00 | 0.07 | 0.07 | 64 | 1011.2 |
| 20260506005153 | 58 | 243 | 5.2 | 11.3 | 0.00 | 0.07 | 0.07 | 63 | 1011.3 |
| 20260506004649 | 58 | 227 | 5.2 | 13.0 | 0.00 | 0.07 | 0.07 | 63 | 1011.1 |
| 20260506004147 | 59 | 249 | 6.1 | 10.4 | 0.00 | 0.07 | 0.07 | 60 | 1011.2 |
| 20260506003643 | 59 | 233 | 7.8 | 11.3 | 0.00 | 0.07 | 0.07 | 60 | 1011.1 |
| 20260506003139 | 58 | 240 | 7.0 | 13.9 | 0.00 | 0.07 | 0.07 | 60 | 1011.1 |
| 20260506002635 | 59 | 234 | 7.0 | 9.6 | 0.00 | 0.07 | 0.07 | 60 | 1011.0 |
| 20260506002131 | 58 | 235 | 8.7 | 13.9 | 0.00 | 0.07 | 0.07 | 59 | 1011.1 |
| 20260506001627 | 59 | 225 | 7.8 | 12.2 | 0.00 | 0.07 | 0.07 | 58 | 1011.2 |
| 20260506001125 | 60 | 217 | 4.3 | 9.6 | 0.00 | 0.07 | 0.07 | 57 | 1011.3 |
| 20260506000622 | 60 | 199 | 4.3 | 7.0 | 0.00 | 0.07 | 0.07 | 54 | 1011.2 |
| 20260506000119 | 59 | 201 | 7.0 | 8.7 | 0.00 | 0.07 | 0.07 | 58 | 1011.4 |
| 20260505235617 | 58 | 225 | 7.0 | 9.6 | 0.00 | 0.07 | 0.07 | 63 | 1011.3 |
| 20260505235114 | 58 | 227 | 5.2 | 8.7 | 0.00 | 0.07 | 0.07 | 61 | 1011.3 |
| 20260505234611 | 57 | 219 | 4.3 | 7.8 | 0.00 | 0.07 | 0.07 | 64 | 1011.6 |
| 20260505234107 | 58 | 216 | 6.1 | 6.1 | 0.00 | 0.07 | 0.07 | 63 | 1011.6 |
| 20260505233605 | 58 | 233 | 5.2 | 12.2 | 0.00 | 0.07 | 0.07 | 67 | 1011.6 |
| 20260505233102 | 57 | 219 | 7.0 | 12.2 | 0.00 | 0.07 | 0.07 | 67 | 1011.0 |
| 20260505232600 | 55 | 212 | 1.7 | 7.8 | 0.00 | 0.07 | 0.07 | 70 | 1011.1 |
| 20260505232057 | 55 | 244 | 1.7 | 7.8 | 0.00 | 0.07 | 0.07 | 71 | 1011.3 |
| 20260505231554 | 55 | 238 | 3.5 | 10.4 | 0.00 | 0.07 | 0.07 | 73 | 1011.4 |
| 20260505231053 | 55 | 224 | 9.6 | 11.3 | 0.00 | 0.07 | 0.07 | 70 | 1011.1 |
| 20260505230550 | 55 | 240 | 6.1 | 14.8 | 0.00 | 0.07 | 0.07 | 71 | 1011.2 |
| 20260505230046 | 56 | 239 | 9.6 | 13.0 | 0.00 | 0.07 | 0.07 | 70 | 1011.1 |
| 20260505225543 | 56 | 240 | 7.8 | 11.3 | 0.00 | 0.07 | 0.07 | 69 | 1010.9 |
| 20260505225039 | 57 | 251 | 11.3 | 13.0 | 0.00 | 0.07 | 0.07 | 68 | 1011.0 |
| 20260505224536 | 57 | 244 | 7.8 | 13.0 | 0.00 | 0.07 | 0.07 | 69 | 1011.0 |
| 20260505224034 | 57 | 242 | 12.2 | 13.9 | 0.00 | 0.07 | 0.07 | 71 | 1011.3 |
| 20260505223531 | 56 | 238 | 7.8 | 11.3 | 0.00 | 0.07 | 0.07 | 71 | 1011.3 |
| 20260505223027 | 55 | 231 | 7.0 | 10.4 | 0.00 | 0.07 | 0.07 | 74 | 1010.9 |
| 20260505222523 | 55 | 256 | 7.0 | 9.6 | 0.00 | 0.07 | 0.07 | 73 | 1011.2 |
| 20260505222019 | 55 | 230 | 6.1 | 9.6 | 0.05 | 0.07 | 0.07 | 71 | 1011.4 |
| 20260505221517 | 53 | 229 | 3.5 | 10.4 | 0.05 | 0.07 | 0.07 | 75 | 1011.6 |
| 20260505221013 | 55 | 241 | 6.1 | 13.9 | 0.00 | 0.06 | 0.06 | 71 | 1011.2 |
| 20260505220510 | 55 | 249 | 7.8 | 12.2 | 0.00 | 0.06 | 0.06 | 72 | 1011.3 |
| 20260505220008 | 57 | 259 | 4.3 | 5.2 | 0.00 | 0.06 | 0.06 | 70 | 1011.3 |
| 20260505215506 | 53 | 264 | 3.5 | 7.8 | 0.00 | 0.06 | 0.06 | 78 | 1011.4 |
| 20260505215003 | 52 | 262 | 4.3 | 8.7 | 0.05 | 0.06 | 0.06 | 80 | 1011.4 |
| 20260505214502 | 52 | 247 | 5.2 | 8.7 | 0.05 | 0.06 | 0.06 | 78 | 1011.4 |
| 20260505213958 | 53 | 287 | 7.0 | 9.6 | 0.05 | 0.06 | 0.06 | 76 | 1011.7 |
| 20260505213456 | 54 | 307 | 3.5 | 7.0 | 0.05 | 0.05 | 0.05 | 71 | 1012.0 |
| 20260505212952 | 54 | 267 | 5.2 | 7.0 | 0.07 | 0.05 | 0.05 | 73 | 1011.9 |
| 20260505212449 | 53 | 303 | 7.0 | 8.7 | 0.17 | 0.04 | 0.04 | 72 | 1012.0 |
| 20260505211945 | 53 | 295 | 4.3 | 16.5 | 0.19 | 0.04 | 0.04 | 70 | 1012.0 |
| 20260505211443 | 56 | 328 | 8.7 | 12.2 | 0.09 | 0.02 | 0.02 | 69 | 1011.8 |
| 20260505210939 | 59 | 355 | 6.1 | 12.2 | 0.02 | 0.00 | 0.00 | 60 | 1011.3 |
| 20260505210436 | 62 | 255 | 6.1 | 13.0 | 0.00 | 0.00 | 0.00 | 47 | 1011.1 |
| 20260505205933 | 62 | 254 | 9.6 | 11.3 | 0.00 | 0.00 | 0.00 | 46 | 1010.9 |
| 20260505205432 | 62 | 248 | 6.1 | 8.7 | 0.00 | 0.00 | 0.00 | 44 | 1011.0 |
| 20260505204928 | 62 | 249 | 8.7 | 17.4 | 0.00 | 0.00 | 0.00 | 45 | 1010.9 |
| 20260505204426 | 62 | 223 | 7.0 | 17.4 | 0.00 | 0.00 | 0.00 | 45 | 1011.0 |
| 20260505203923 | 64 | 245 | 13.9 | 15.6 | 0.00 | 0.00 | 0.00 | 42 | 1010.9 |
| 20260505203419 | 64 | 233 | 6.1 | 17.4 | 0.00 | 0.00 | 0.00 | 42 | 1011.0 |
| 20260505202915 | 65 | 233 | 7.0 | 16.5 | 0.00 | 0.00 | 0.00 | 42 | 1011.0 |
| 20260505202412 | 65 | 245 | 10.4 | 13.9 | 0.00 | 0.00 | 0.00 | 41 | 1010.9 |
| 20260505201908 | 63 | 216 | 8.7 | 20.9 | 0.00 | 0.00 | 0.00 | 44 | 1011.2 |
| 20260505201406 | 63 | 214 | 9.6 | 16.5 | 0.00 | 0.00 | 0.00 | 44 | 1011.1 |
| 20260505200904 | 65 | 237 | 14.8 | 18.2 | 0.00 | 0.00 | 0.00 | 41 | 1011.1 |
| 20260505200401 | 65 | 223 | 8.7 | 14.8 | 0.00 | 0.00 | 0.00 | 42 | 1011.2 |
| 20260505195856 | 65 | 234 | 13.0 | 15.6 | 0.00 | 0.00 | 0.00 | 42 | 1011.4 |
| 20260505195354 | 64 | 245 | 7.8 | 13.9 | 0.00 | 0.00 | 0.00 | 43 | 1011.4 |
| 20260505194850 | 64 | 254 | 7.0 | 16.5 | 0.00 | 0.00 | 0.00 | 43 | 1011.4 |
| 20260505194348 | 64 | 257 | 7.8 | 13.0 | 0.00 | 0.00 | 0.00 | 43 | 1011.8 |
| 20260505193848 | 64 | 238 | 6.1 | 10.4 | 0.00 | 0.00 | 0.00 | 43 | 1011.9 |
| 20260505193347 | 62 | 227 | 11.3 | 14.8 | 0.00 | 0.00 | 0.00 | 46 | 1012.1 |
| 20260505192844 | 61 | 254 | 7.8 | 17.4 | 0.00 | 0.00 | 0.00 | 47 | 1011.6 |
| 20260505192342 | 61 | 232 | 7.8 | 9.6 | 0.00 | 0.00 | 0.00 | 46 | 1011.7 |
| 20260505191839 | 60 | 228 | 8.7 | 13.9 | 0.00 | 0.00 | 0.00 | 48 | 1011.8 |
| 20260505191338 | 62 | 244 | 7.8 | 12.2 | 0.00 | 0.00 | 0.00 | 46 | 1011.9 |
| 20260505190834 | 61 | 217 | 7.0 | 7.8 | 0.00 | 0.00 | 0.00 | 47 | 1011.9 |
| 20260505190330 | 61 | 247 | 7.8 | 12.2 | 0.00 | 0.00 | 0.00 | 47 | 1011.8 |
| 20260505185825 | 62 | 223 | 6.1 | 10.4 | 0.00 | 0.00 | 0.00 | 46 | 1011.8 |
| 20260505185322 | 60 | 242 | 4.3 | 9.6 | 0.00 | 0.00 | 0.00 | 47 | 1011.9 |
| 20260505184818 | 60 | 251 | 5.2 | 13.9 | 0.00 | 0.00 | 0.00 | 48 | 1011.9 |
| 20260505184315 | 62 | 224 | 14.8 | 19.1 | 0.00 | 0.00 | 0.00 | 46 | 1011.9 |
| 20260505183813 | 61 | 252 | 7.0 | 13.0 | 0.00 | 0.00 | 0.00 | 46 | 1011.9 |
| 20260505183309 | 60 | 245 | 7.0 | 13.0 | 0.00 | 0.00 | 0.00 | 48 | 1011.8 |
| 20260505182806 | 60 | 224 | 7.8 | 13.0 | 0.00 | 0.00 | 0.00 | 49 | 1012.1 |
| 20260505182305 | 61 | 199 | 3.5 | 13.9 | 0.00 | 0.00 | 0.00 | 47 | 1011.9 |
| 20260505181759 | 61 | 234 | 12.2 | 15.6 | 0.00 | 0.00 | 0.00 | 48 | 1011.7 |
| 20260505181257 | 60 | 239 | 11.3 | 16.5 | 0.00 | 0.00 | 0.00 | 50 | 1011.7 |
| 20260505180753 | 59 | 230 | 8.7 | 15.6 | 0.00 | 0.00 | 0.00 | 51 | 1011.9 |
| 20260505180250 | 59 | 252 | 7.0 | 13.0 | 0.00 | 0.00 | 0.00 | 51 | 1011.6 |
| 20260505175746 | 59 | 226 | 12.2 | 16.5 | 0.00 | 0.00 | 0.00 | 52 | 1011.9 |
| 20260505175243 | 59 | 239 | 14.8 | 16.5 | 0.00 | 0.00 | 0.00 | 51 | 1012.0 |
| 20260505174739 | 60 | 221 | 3.5 | 11.3 | 0.00 | 0.00 | 0.00 | 49 | 1011.6 |
| 20260505174237 | 61 | 229 | 13.9 | 14.8 | 0.00 | 0.00 | 0.00 | 48 | 1011.9 |
| 20260505173732 | 60 | 232 | 4.3 | 12.2 | 0.00 | 0.00 | 0.00 | 49 | 1011.4 |
| 20260505173229 | 59 | 223 | 7.8 | 13.9 | 0.00 | 0.00 | 0.00 | 51 | 1011.6 |
| 20260505172726 | 59 | 237 | 11.3 | 13.9 | 0.00 | 0.00 | 0.00 | 51 | 1011.7 |
| 20260505172223 | 58 | 238 | 12.2 | 15.6 | 0.00 | 0.00 | 0.00 | 53 | 1011.6 |
| 20260505171723 | 58 | 229 | 11.3 | 13.0 | 0.00 | 0.00 | 0.00 | 53 | 1011.8 |
| 20260505171221 | 57 | 217 | 7.8 | 13.0 | 0.00 | 0.00 | 0.00 | 56 | 1011.8 |
| 20260505170717 | 58 | 236 | 7.8 | 12.2 | 0.00 | 0.00 | 0.00 | 53 | 1011.8 |
| 20260505170214 | 57 | 237 | 7.0 | 13.0 | 0.00 | 0.00 | 0.00 | 55 | 1011.8 |
| 20260505165709 | 59 | 223 | 8.7 | 10.4 | 0.00 | 0.00 | 0.00 | 52 | 1011.6 |
| 20260505165206 | 57 | 232 | 11.3 | 13.0 | 0.00 | 0.00 | 0.00 | 55 | 1011.7 |
| 20260505164701 | 56 | 248 | 7.0 | 12.2 | 0.00 | 0.00 | 0.00 | 57 | 1011.8 |
| 20260505164158 | 57 | 228 | 7.8 | 13.0 | 0.00 | 0.00 | 0.00 | 56 | 1011.6 |
| 20260505163657 | 57 | 253 | 6.1 | 13.9 | 0.00 | 0.00 | 0.00 | 55 | 1011.7 |
| 20260505163155 | 57 | 247 | 7.0 | 12.2 | 0.00 | 0.00 | 0.00 | 53 | 1011.6 |
| 20260505162652 | 57 | 258 | 6.1 | 9.6 | 0.00 | 0.00 | 0.00 | 55 | 1011.6 |
| 20260505162149 | 56 | 236 | 7.0 | 9.6 | 0.00 | 0.00 | 0.00 | 56 | 1011.9 |
| 20260505161646 | 57 | 231 | 8.7 | 9.6 | 0.00 | 0.00 | 0.00 | 55 | 1011.7 |
| 20260505161143 | 56 | 255 | 9.6 | 13.9 | 0.00 | 0.00 | 0.00 | 56 | 1011.6 |
| 20260505160641 | 56 | 243 | 5.2 | 13.0 | 0.00 | 0.00 | 0.00 | 56 | 1011.7 |
| 20260505160138 | 56 | 236 | 6.1 | 13.0 | 0.00 | 0.00 | 0.00 | 56 | 1011.6 |
| 20260505153118 | 54 | 242 | 6.1 | 11.3 | 0.00 | 0.00 | 0.00 | 57 | 1011.4 |
| 20260505152614 | 54 | 267 | 6.1 | 11.3 | 0.00 | 0.00 | 0.00 | 59 | 1011.6 |
| 20260505152110 | 54 | 255 | 6.1 | 12.2 | 0.00 | 0.00 | 0.00 | 58 | 1011.6 |
| 20260505151605 | 54 | 251 | 5.2 | 10.4 | 0.00 | 0.00 | 0.00 | 58 | 1011.4 |
| 20260505151103 | 54 | 264 | 6.1 | 11.3 | 0.00 | 0.00 | 0.00 | 59 | 1011.7 |
| 20260505150559 | 53 | 263 | 7.8 | 9.6 | 0.00 | 0.00 | 0.00 | 60 | 1011.8 |
| 20260505140525 | 50 | 238 | 6.1 | 9.6 | 0.00 | 0.00 | 0.00 | 66 | 1011.3 |
| 20260505124938 | 45 | 204 | 3.5 | 4.3 | 0.00 | 0.00 | 0.00 | 78 | 1010.6 |